• In Czech Republic
  • List of Countries
  • For 7 days
  • Water Temperature
  • Satellite Maps
  • Weather Map
  • Weather Widgets
  • user-avatar
    Login

    Hourly Weather Oksford

    Today, 20 June, Wednesday

    Time Temperature Precipitation Wind Pressure Humidity
    00:00 +14°C° 0 mm 3 mps 761 mmHg 97%
    01:00 +14°C° 0 mm 3 mps 760 mmHg 97%
    02:00 +14°C° 0 mm 3 mps 760 mmHg 97%
    03:00 +14°C° 0 mm 3 mps 760 mmHg 98%
    04:00 +14°C° 0 mm 4 mps 760 mmHg 96%
    05:00 +15°C° 0 mm 4 mps 760 mmHg 95%
    06:00 +15°C° 0 mm 5 mps 760 mmHg 94%
    07:00 +16°C° 0 mm 5 mps 760 mmHg 92%
    08:00 +17°C° 0 mm 5 mps 759 mmHg 90%
    09:00 +19°C° 0 mm 5 mps 759 mmHg 88%
    10:00 +19°C° 0 mm 5 mps 759 mmHg 86%
    11:00 +20°C° 0 mm 6 mps 759 mmHg 84%
    12:00 +21°C° 0 mm 6 mps 759 mmHg 82%
    13:00 +20°C° 0.1 mm 6 mps 759 mmHg 83%
    14:00 +20°C° 0.1 mm 5 mps 759 mmHg 84%
    15:00 +20°C° 0.1 mm 5 mps 759 mmHg 85%
    16:00 +20°C° 0.1 mm 5 mps 759 mmHg 85%
    17:00 +19°C° 0.1 mm 5 mps 759 mmHg 85%
    18:00 +19°C° 0.1 mm 4 mps 759 mmHg 85%
    19:00 +18°C° 0 mm 4 mps 759 mmHg 85%
    20:00 +15°C° 0 mm 4 mps 759 mmHg 86%
    21:00 +14°C° 0 mm 4 mps 759 mmHg 87%
    22:00 +13°C° 0 mm 4 mps 760 mmHg 84%
    23:00 +11°C° 0 mm 4 mps 760 mmHg 81%

    Tomorrow, 21 June, Thursday

    Time Temperature Precipitation Wind Pressure Humidity
    00:00 +10°C° 0 mm 4 mps 760 mmHg 78%
    01:00 +9°C° 0 mm 3 mps 761 mmHg 80%
    02:00 +9°C° 0 mm 3 mps 761 mmHg 83%
    03:00 +8°C° 0 mm 3 mps 761 mmHg 86%
    04:00 +8°C° 0 mm 4 mps 762 mmHg 84%
    05:00 +8°C° 0 mm 5 mps 762 mmHg 82%
    06:00 +9°C° 0 mm 6 mps 763 mmHg 79%
    07:00 +10°C° 0 mm 6 mps 763 mmHg 74%
    08:00 +11°C° 0 mm 6 mps 763 mmHg 69%
    09:00 +13°C° 0 mm 6 mps 764 mmHg 64%
    10:00 +14°C° 0 mm 6 mps 764 mmHg 63%
    11:00 +15°C° 0 mm 6 mps 764 mmHg 61%
    12:00 +16°C° 0 mm 6 mps 764 mmHg 59%
    13:00 +16°C° 0 mm 5 mps 765 mmHg 59%
    14:00 +17°C° 0 mm 5 mps 765 mmHg 58%
    15:00 +17°C° 0 mm 5 mps 765 mmHg 57%
    16:00 +17°C° 0 mm 5 mps 765 mmHg 61%
    17:00 +16°C° 0 mm 5 mps 765 mmHg 64%
    18:00 +17°C° 0 mm 4 mps 765 mmHg 68%
    19:00 +14°C° 0 mm 4 mps 766 mmHg 71%
    20:00 +12°C° 0 mm 4 mps 766 mmHg 75%
    21:00 +10°C° 0 mm 4 mps 767 mmHg 78%
    22:00 +10°C° 0 mm 4 mps 767 mmHg 79%
    23:00 +9°C° 0 mm 3 mps 767 mmHg 81%

    Day after tomorrow, 22 June, Friday

    Time Temperature Precipitation Wind Pressure Humidity
    00:00 +8°C° 0 mm 3 mps 767 mmHg 82%
    01:00 +8°C° 0 mm 3 mps 767 mmHg 85%
    02:00 +7°C° 0 mm 3 mps 767 mmHg 87%
    03:00 +7°C° 0 mm 3 mps 767 mmHg 90%
    04:00 +8°C° 0 mm 3 mps 767 mmHg 88%
    05:00 +8°C° 0 mm 3 mps 767 mmHg 86%
    06:00 +8°C° 0 mm 4 mps 767 mmHg 84%
    07:00 +11°C° 0 mm 3 mps 767 mmHg 79%
    08:00 +13°C° 0 mm 3 mps 768 mmHg 73%
    09:00 +16°C° 0 mm 3 mps 768 mmHg 68%
    10:00 +17°C° 0 mm 3 mps 768 mmHg 64%
    11:00 +18°C° 0 mm 3 mps 768 mmHg 60%
    12:00 +19°C° 0 mm 3 mps 768 mmHg 57%
    13:00 +19°C° 0 mm 3 mps 767 mmHg 56%
    14:00 +19°C° 0 mm 3 mps 767 mmHg 55%
    15:00 +20°C° 0 mm 3 mps 767 mmHg 54%
    16:00 +19°C° 0 mm 3 mps 767 mmHg 58%
    17:00 +19°C° 0 mm 2 mps 767 mmHg 62%
    18:00 +19°C° 0 mm 2 mps 767 mmHg 66%
    19:00 +17°C° 0 mm 2 mps 767 mmHg 70%
    20:00 +15°C° 0 mm 2 mps 767 mmHg 74%
    21:00 +13°C° 0 mm 1 mps 767 mmHg 77%
    22:00 +12°C° 0 mm 1 mps 767 mmHg 78%
    23:00 +11°C° 0 mm 1 mps 767 mmHg 79%

    23 June, Saturday

    Time Temperature Precipitation Wind Pressure Humidity
    00:00 +10°C° 0 mm 1 mps 767 mmHg 80%
    01:00 +9°C° 0 mm 2 mps 767 mmHg 80%
    02:00 +8°C° 0 mm 2 mps 767 mmHg 81%
    03:00 +8°C° 0 mm 2 mps 766 mmHg 81%
    04:00 +9°C° 0 mm 2 mps 766 mmHg 80%
    05:00 +9°C° 0 mm 2 mps 766 mmHg 78%
    06:00 +10°C° 0 mm 2 mps 766 mmHg 77%
    07:00 +13°C° 0 mm 2 mps 766 mmHg 72%
    08:00 +15°C° 0 mm 2 mps 766 mmHg 67%
    09:00 +17°C° 0 mm 3 mps 766 mmHg 62%
    10:00 +18°C° 0 mm 3 mps 766 mmHg 59%
    11:00 +19°C° 0 mm 3 mps 766 mmHg 56%
    12:00 +20°C° 0 mm 3 mps 766 mmHg 54%
    13:00 +20°C° 0 mm 3 mps 765 mmHg 54%
    14:00 +21°C° 0 mm 3 mps 765 mmHg 55%
    15:00 +21°C° 0 mm 3 mps 765 mmHg 55%
    16:00 +21°C° 0 mm 3 mps 765 mmHg 60%
    17:00 +21°C° 0 mm 2 mps 765 mmHg 64%
    18:00 +20°C° 0 mm 2 mps 764 mmHg 69%
    19:00 +18°C° 0 mm 2 mps 764 mmHg 72%
    20:00 +16°C° 0 mm 2 mps 765 mmHg 75%
    21:00 +15°C° 0 mm 2 mps 765 mmHg 78%
    22:00 +14°C° 0 mm 2 mps 765 mmHg 78%
    23:00 +13°C° 0 mm 2 mps 765 mmHg 78%

    24 June, Sunday

    Time Temperature Precipitation Wind Pressure Humidity
    00:00 +12°C° 0 mm 2 mps 765 mmHg 78%
    01:00 +12°C° 0 mm 2 mps 764 mmHg 79%
    02:00 +11°C° 0 mm 1 mps 764 mmHg 81%
    03:00 +11°C° 0 mm 1 mps 764 mmHg 83%
    04:00 +12°C° 0 mm 1 mps 764 mmHg 82%
    05:00 +12°C° 0 mm 1 mps 764 mmHg 81%
    06:00 +13°C° 0 mm 1 mps 764 mmHg 80%
    07:00 +15°C° 0 mm 1 mps 764 mmHg 76%
    08:00 +18°C° 0 mm 1 mps 764 mmHg 72%
    09:00 +20°C° 0 mm 1 mps 765 mmHg 67%
    10:00 +21°C° 0 mm 1 mps 765 mmHg 64%
    11:00 +22°C° 0 mm 1 mps 765 mmHg 61%
    12:00 +23°C° 0 mm 1 mps 765 mmHg 58%
    13:00 +24°C° 0 mm 1 mps 764 mmHg 57%
    14:00 +24°C° 0 mm 1 mps 764 mmHg 56%
    15:00 +24°C° 0 mm 1 mps 764 mmHg 55%
    16:00 +24°C° 0 mm 1 mps 764 mmHg 58%
    17:00 +24°C° 0 mm 1 mps 764 mmHg 61%
    18:00 +23°C° 0 mm 1 mps 764 mmHg 64%
    19:00 +21°C° 0 mm 1 mps 764 mmHg 70%
    20:00 +19°C° 0 mm 1 mps 764 mmHg 75%
    21:00 +16°C° 0 mm 2 mps 764 mmHg 81%
    22:00 +16°C° 0 mm 2 mps 764 mmHg 84%
    23:00 +15°C° 0 mm 2 mps 764 mmHg 86%

    25 June, Monday

    Time Temperature Precipitation Wind Pressure Humidity
    00:00 +14°C° 0 mm 2 mps 764 mmHg 89%
    01:00 +13°C° 0 mm 2 mps 764 mmHg 88%
    02:00 +13°C° 0 mm 1 mps 764 mmHg 88%
    03:00 +12°C° 0 mm 1 mps 764 mmHg 87%
    04:00 +13°C° 0 mm 1 mps 764 mmHg 85%
    05:00 +14°C° 0 mm 1 mps 764 mmHg 82%
    06:00 +15°C° 0 mm 1 mps 764 mmHg 80%
    07:00 +18°C° 0 mm 1 mps 764 mmHg 75%
    08:00 +20°C° 0 mm 1 mps 764 mmHg 70%
    09:00 +21°C° 0 mm 1 mps 765 mmHg 65%
    10:00 +21°C° 0 mm 2 mps 764 mmHg 62%
    11:00 +23°C° 0 mm 2 mps 764 mmHg 59%
    12:00 +24°C° 0 mm 2 mps 764 mmHg 56%
    13:00 +24°C° 0 mm 2 mps 764 mmHg 55%
    14:00 +25°C° 0 mm 2 mps 764 mmHg 54%
    15:00 +25°C° 0 mm 2 mps 763 mmHg 53%
    16:00 +25°C° 0 mm 2 mps 763 mmHg 58%
    17:00 +25°C° 0 mm 2 mps 763 mmHg 63%
    18:00 +24°C° 0 mm 2 mps 763 mmHg 68%
    19:00 +21°C° 0 mm 2 mps 763 mmHg 71%
    20:00 +19°C° 0 mm 2 mps 763 mmHg 75%
    21:00 +17°C° 0 mm 2 mps 763 mmHg 78%
    22:00 +16°C° 0 mm 2 mps 763 mmHg 79%
    23:00 +15°C° 0 mm 2 mps 763 mmHg 79%
    Show more